Satellite-Ground Cal/Val Region Overpasses Predictions

Prediction of Satellite NPP Overpassing Cal/Val Region: PacNW

Region Location: (Latitude: 10.00, Longitude: 139.50) to (Latitude: 22.70, Longitude: 165.60).

Table of predicted overpasses for the next 14.0 days since TLE Epoch: 11/2/2013
Interval Starting Time Starting Location Ending Time Ending Location
1 11/02/2013 03:37:40 ( 10.02, 145.58) 11/02/2013 03:41:16 ( 22.70, 142.56)
2 11/02/2013 14:31:10 ( 11.73, 165.59) 11/02/2013 14:31:39 ( 10.03, 165.19)
3 11/02/2013 16:09:34 ( 22.64, 142.83) 11/02/2013 16:13:09 ( 10.03, 139.82)
4 11/03/2013 03:18:39 ( 10.03, 150.34) 11/03/2013 03:22:14 ( 22.65, 147.33)
5 11/03/2013 15:50:31 ( 22.69, 147.60) 11/03/2013 15:54:07 ( 10.02, 144.58)
6 11/04/2013 02:59:37 ( 10.04, 155.10) 11/04/2013 03:03:12 ( 22.66, 152.09)
7 11/04/2013 15:31:30 ( 22.68, 152.36) 11/04/2013 15:35:06 ( 10.01, 149.34)
8 11/05/2013 02:40:36 ( 10.05, 159.86) 11/05/2013 02:44:11 ( 22.67, 156.84)
9 11/05/2013 15:12:28 ( 22.67, 157.12) 11/05/2013 15:16:03 ( 10.05, 154.11)
10 11/06/2013 02:21:33 ( 10.00, 164.63) 11/06/2013 02:25:09 ( 22.69, 161.60)
11 11/06/2013 14:53:27 ( 22.66, 161.88) 11/06/2013 14:57:02 ( 10.04, 158.87)
12 11/07/2013 03:44:02 ( 10.03, 144.01) 11/07/2013 03:47:37 ( 22.65, 141.00)
13 11/07/2013 14:35:38 ( 18.42, 165.59) 11/07/2013 14:38:01 ( 10.02, 163.62)
14 11/07/2013 16:15:54 ( 22.69, 141.27) 11/07/2013 16:17:58 ( 15.42, 139.50)
15 11/08/2013 03:25:00 ( 10.04, 148.77) 11/08/2013 03:28:35 ( 22.66, 145.76)
16 11/08/2013 15:56:53 ( 22.68, 146.03) 11/08/2013 16:00:28 ( 10.06, 143.02)
17 11/09/2013 03:05:58 ( 10.00, 153.54) 11/09/2013 03:09:34 ( 22.68, 150.51)
18 11/09/2013 15:37:52 ( 22.66, 150.79) 11/09/2013 15:41:27 ( 10.04, 147.78)
19 11/10/2013 02:46:56 ( 10.02, 158.29) 11/10/2013 02:50:31 ( 22.65, 155.28)
20 11/10/2013 15:18:49 ( 22.70, 155.56) 11/10/2013 15:22:25 ( 10.02, 152.53)
21 11/11/2013 02:27:55 ( 10.04, 163.05) 11/11/2013 02:31:30 ( 22.67, 160.04)
22 11/11/2013 14:59:48 ( 22.67, 160.31) 11/11/2013 15:03:23 ( 10.06, 157.30)
23
